• In Romania
  • List of Countries
  • For 7 days
  • Water Temperature
  • Satellite Maps
  • Weather Map
  • Weather Widgets
  • user-avatar
    Login

    Hourly Weather Bansko

    Today, 19 September, Wednesday

    Time Temperature Precipitation Wind Pressure Humidity
    00:00 +18°C° 0 mm 1 mps 725 mmHg 83%
    01:00 +18°C° 0 mm 1 mps 725 mmHg 84%
    02:00 +18°C° 0 mm 1 mps 725 mmHg 88%
    03:00 +16°C° 0 mm 1 mps 725 mmHg 89%
    04:00 +16°C° 0 mm 1 mps 725 mmHg 89%
    05:00 +15°C° 0 mm 0 mps 725 mmHg 90%
    06:00 +18°C° 0 mm 1 mps 725 mmHg 83%
    07:00 +20°C° 0 mm 1 mps 725 mmHg 76%
    08:00 +21°C° 0 mm 1 mps 725 mmHg 69%
    09:00 +23°C° 0 mm 1 mps 725 mmHg 59%
    10:00 +25°C° 0 mm 1 mps 726 mmHg 50%
    11:00 +27°C° 0 mm 1 mps 726 mmHg 40%
    12:00 +28°C° 0 mm 2 mps 725 mmHg 37%
    13:00 +29°C° 0 mm 2 mps 725 mmHg 33%
    14:00 +30°C° 0 mm 2 mps 725 mmHg 30%
    15:00 +29°C° 0 mm 2 mps 724 mmHg 31%
    16:00 +29°C° 0 mm 2 mps 724 mmHg 32%
    17:00 +28°C° 0 mm 2 mps 724 mmHg 33%
    18:00 +26°C° 0 mm 2 mps 724 mmHg 41%
    19:00 +23°C° 0 mm 2 mps 724 mmHg 48%
    20:00 +20°C° 0 mm 1 mps 724 mmHg 56%
    21:00 +19°C° 0 mm 1 mps 724 mmHg 58%
    22:00 +18°C° 0 mm 1 mps 724 mmHg 60%
    23:00 +18°C° 0 mm 1 mps 724 mmHg 62%

    Tomorrow, 20 September, Thursday

    Time Temperature Precipitation Wind Pressure Humidity
    00:00 +16°C° 0 mm 1 mps 724 mmHg 63%
    01:00 +16°C° 0 mm 1 mps 724 mmHg 63%
    02:00 +15°C° 0 mm 1 mps 724 mmHg 64%
    03:00 +15°C° 0 mm 1 mps 724 mmHg 63%
    04:00 +15°C° 0 mm 1 mps 724 mmHg 63%
    05:00 +15°C° 0 mm 1 mps 724 mmHg 63%
    06:00 +16°C° 0 mm 1 mps 724 mmHg 57%
    07:00 +19°C° 0 mm 1 mps 724 mmHg 52%
    08:00 +21°C° 0 mm 1 mps 724 mmHg 47%
    09:00 +23°C° 0 mm 1 mps 725 mmHg 40%
    10:00 +25°C° 0 mm 1 mps 725 mmHg 34%
    11:00 +28°C° 0 mm 2 mps 725 mmHg 27%
    12:00 +28°C° 0 mm 2 mps 724 mmHg 25%
    13:00 +29°C° 0 mm 2 mps 724 mmHg 23%
    14:00 +30°C° 0 mm 2 mps 724 mmHg 21%
    15:00 +30°C° 0 mm 2 mps 724 mmHg 23%
    16:00 +29°C° 0 mm 2 mps 723 mmHg 24%
    17:00 +28°C° 0 mm 2 mps 723 mmHg 25%
    18:00 +26°C° 0 mm 2 mps 723 mmHg 31%
    19:00 +23°C° 0 mm 1 mps 723 mmHg 36%
    20:00 +20°C° 0 mm 1 mps 723 mmHg 42%
    21:00 +19°C° 0 mm 1 mps 723 mmHg 43%
    22:00 +19°C° 0 mm 1 mps 723 mmHg 44%
    23:00 +18°C° 0 mm 1 mps 723 mmHg 46%

    Day after tomorrow, 21 September, Friday

    Time Temperature Precipitation Wind Pressure Humidity
    00:00 +16°C° 0 mm 1 mps 723 mmHg 46%
    01:00 +16°C° 0 mm 1 mps 723 mmHg 47%
    02:00 +16°C° 0 mm 1 mps 723 mmHg 48%
    03:00 +15°C° 0 mm 1 mps 723 mmHg 48%
    04:00 +15°C° 0 mm 1 mps 723 mmHg 48%
    05:00 +15°C° 0 mm 1 mps 723 mmHg 48%
    06:00 +18°C° 0 mm 1 mps 723 mmHg 45%
    07:00 +19°C° 0 mm 1 mps 724 mmHg 42%
    08:00 +21°C° 0 mm 1 mps 724 mmHg 39%
    09:00 +23°C° 0 mm 1 mps 724 mmHg 35%
    10:00 +25°C° 0 mm 1 mps 724 mmHg 31%
    11:00 +28°C° 0 mm 1 mps 724 mmHg 27%
    12:00 +28°C° 0 mm 1 mps 724 mmHg 26%
    13:00 +29°C° 0 mm 1 mps 724 mmHg 25%
    14:00 +30°C° 0 mm 1 mps 723 mmHg 24%
    15:00 +29°C° 0 mm 1 mps 723 mmHg 26%
    16:00 +28°C° 0 mm 1 mps 723 mmHg 28%
    17:00 +28°C° 0 mm 1 mps 722 mmHg 30%
    18:00 +25°C° 0 mm 1 mps 722 mmHg 35%
    19:00 +22°C° 0 mm 1 mps 722 mmHg 41%
    20:00 +20°C° 0 mm 1 mps 722 mmHg 47%
    21:00 +19°C° 0 mm 1 mps 723 mmHg 48%
    22:00 +19°C° 0 mm 1 mps 723 mmHg 50%
    23:00 +18°C° 0 mm 1 mps 723 mmHg 51%

    22 September, Saturday

    Time Temperature Precipitation Wind Pressure Humidity
    00:00 +18°C° 0 mm 1 mps 723 mmHg 52%
    01:00 +18°C° 0 mm 1 mps 723 mmHg 53%
    02:00 +16°C° 0 mm 1 mps 723 mmHg 54%
    03:00 +16°C° 0 mm 1 mps 723 mmHg 54%
    04:00 +16°C° 0 mm 1 mps 723 mmHg 54%
    05:00 +16°C° 0 mm 1 mps 723 mmHg 55%
    06:00 +19°C° 0 mm 1 mps 723 mmHg 51%
    07:00 +20°C° 0 mm 1 mps 723 mmHg 47%
    08:00 +20°C° 0 mm 0 mps 723 mmHg 43%
    09:00 +23°C° 0 mm 0 mps 724 mmHg 37%
    10:00 +25°C° 0 mm 0 mps 724 mmHg 32%
    11:00 +28°C° 0 mm 0 mps 724 mmHg 26%
    12:00 +31°C° 0 mm 1 mps 723 mmHg 25%
    13:00 +31°C° 0 mm 1 mps 723 mmHg 24%
    14:00 +32°C° 0 mm 1 mps 723 mmHg 23%
    15:00 +31°C° 0 mm 1 mps 722 mmHg 24%
    16:00 +31°C° 0 mm 1 mps 722 mmHg 26%
    17:00 +30°C° 0 mm 1 mps 722 mmHg 27%
    18:00 +27°C° 0 mm 1 mps 722 mmHg 32%
    19:00 +24°C° 0 mm 1 mps 722 mmHg 37%
    20:00 +22°C° 0 mm 1 mps 722 mmHg 42%
    21:00 +21°C° 0 mm 1 mps 722 mmHg 43%
    22:00 +20°C° 0 mm 1 mps 723 mmHg 45%
    23:00 +20°C° 0 mm 1 mps 723 mmHg 46%

    23 September, Sunday

    Time Temperature Precipitation Wind Pressure Humidity
    00:00 +20°C° 0 mm 1 mps 723 mmHg 46%
    01:00 +19°C° 0 mm 1 mps 723 mmHg 47%
    02:00 +19°C° 0 mm 1 mps 723 mmHg 47%
    03:00 +19°C° 0 mm 1 mps 723 mmHg 49%
    04:00 +19°C° 0 mm 1 mps 723 mmHg 50%
    05:00 +18°C° 0 mm 2 mps 724 mmHg 52%
    06:00 +19°C° 0 mm 2 mps 724 mmHg 51%
    07:00 +20°C° 0 mm 2 mps 724 mmHg 51%
    08:00 +21°C° 0 mm 2 mps 725 mmHg 50%
    09:00 +23°C° 0 mm 2 mps 725 mmHg 47%
    10:00 +25°C° 0 mm 2 mps 725 mmHg 44%
    11:00 +27°C° 0 mm 3 mps 726 mmHg 40%
    12:00 +28°C° 0 mm 2 mps 725 mmHg 38%
    13:00 +29°C° 0 mm 2 mps 725 mmHg 36%
    14:00 +30°C° 0 mm 2 mps 724 mmHg 35%
    15:00 +29°C° 0 mm 2 mps 724 mmHg 36%
    16:00 +29°C° 0 mm 2 mps 724 mmHg 38%
    17:00 +28°C° 0 mm 2 mps 724 mmHg 39%
    18:00 +26°C° 0 mm 2 mps 724 mmHg 47%
    19:00 +23°C° 0 mm 1 mps 724 mmHg 54%
    20:00 +21°C° 0 mm 1 mps 724 mmHg 62%
    21:00 +20°C° 0 mm 1 mps 724 mmHg 64%
    22:00 +20°C° 0 mm 1 mps 724 mmHg 66%
    23:00 +19°C° 0 mm 1 mps 724 mmHg 68%

    24 September, Monday

    Time Temperature Precipitation Wind Pressure Humidity
    00:00 +19°C° 0 mm 1 mps 724 mmHg 69%
    01:00 +19°C° 0 mm 1 mps 723 mmHg 70%
    02:00 +18°C° 0 mm 1 mps 723 mmHg 72%
    03:00 +18°C° 0 mm 1 mps 723 mmHg 72%
    04:00 +18°C° 0 mm 1 mps 722 mmHg 72%
    05:00 +17°C° 0 mm 2 mps 722 mmHg 72%
    06:00 +18°C° 0 mm 2 mps 722 mmHg 67%
    07:00 +19°C° 0 mm 2 mps 722 mmHg 63%
    08:00 +21°C° 0 mm 2 mps 721 mmHg 59%
    09:00 +24°C° 0 mm 3 mps 721 mmHg 52%
    10:00 +26°C° 0 mm 3 mps 721 mmHg 46%
    11:00 +29°C° 0 mm 3 mps 721 mmHg 39%
    12:00 +30°C° 0 mm 3 mps 720 mmHg 37%
    13:00 +31°C° 0 mm 3 mps 720 mmHg 34%
    14:00 +31°C° 0 mm 3 mps 719 mmHg 32%
    15:00 +31°C° 0 mm 3 mps 719 mmHg 33%
    16:00 +31°C° 0 mm 3 mps 718 mmHg 35%
    17:00 +30°C° 0 mm 2 mps 718 mmHg 36%
    18:00 +28°C° 0 mm 2 mps 719 mmHg 44%
    19:00 +25°C° 0 mm 2 mps 719 mmHg 52%
    20:00 +21°C° 0 mm 3 mps 720 mmHg 61%
    21:00 +20°C° 0 mm 3 mps 721 mmHg 63%
    22:00 +19°C° 0 mm 3 mps 722 mmHg 66%
    23:00 +17°C° 0 mm 4 mps 722 mmHg 69%
    Show more